Temperature
30 31 31 32 32 32 32 32 32 32 32 32 32 32 32 30 29 29 28 27 26 25 24 23 22 22 21 20 20 20 20 19 19 19 18 18 18 18 18 18 18 18 18 18
31 31 32 32 32 31 31 31 32 32 32 32 32 32 32 31 30 29 28 27 26 26 25 24 22 22 21 21 21 20 20 20 20 19 19 19 19 19 19 19 18 18 18 18
31 32 32 31 31 31 31 31 31 31 32 32 32 32 32 31 30 29 28 28 27 26 26 24 23 22 22 21 21 21 21 20 20 20 19 19 19 19 19 19 19 19 18 18
31 31 31 31 31 31 31 32 31 31 31 32 32 31 32 32 31 30 29 28 28 27 26 25 23 23 22 22 22 21 21 21 21 20 19 19 19 19 19 19 19 19 19 18
30 31 30 30 31 31 31 31 31 31 31 31 31 31 32 32 31 31 30 29 28 28 26 25 24 23 23 22 22 22 22 21 21 21 20 20 19 19 19 19 19 19 18 18
30 31 31 31 31 31 31 30 30 30 31 30 31 31 31 33 32 31 31 29 28 28 27 25 24 24 23 22 22 22 22 22 21 21 21 20 20 19 19 19 19 19 19 18
29 30 30 30 30 30 30 30 29 29 29 30 31 31 31 32 32 31 31 29 28 27 27 26 25 24 23 22 22 22 22 22 22 21 21 21 20 20 20 19 19 19 19 19
28 29 30 30 30 30 30 30 29 29 29 31 30 30 31 31 31 30 29 29 28 28 27 26 25 24 23 23 22 22 22 22 22 21 21 21 21 20 19 19 19 19 19 19
29 29 30 30 30 30 30 30 31 30 30 30 30 31 31 31 30 30 29 28 28 27 27 26 25 24 23 23 22 22 22 22 22 21 21 21 21 20 19 19 19 19 19 19
28 27 29 29 29 29 30 30 30 30 28 28 30 30 31 30 29 29 29 28 27 27 26 26 25 25 24 23 22 22 22 22 22 21 21 20 21 20 20 19 19 19 19 19
28 27 28 28 28 29 28 29 29 29 29 28 29 30 31 29 29 29 29 28 27 26 26 26 25 24 24 23 22 22 21 21 21 21 20 20 20 20 20 19 19 19 19 19
26 27 27 28 28 28 29 29 29 28 28 28 29 29 29 29 29 28 27 26 25 25 25 25 24 24 23 23 22 22 21 20 20 20 20 20 20 20 19 19 19 19 19 18
25 26 26 27 27 27 28 28 28 28 28 28 28 29 29 28 27 26 26 25 24 23 24 23 23 23 22 22 21 21 21 20 20 20 20 20 19 19 19 19 19 19 19 19
23 25 25 26 27 27 27 27 27 27 28 28 28 28 28 27 26 26 25 24 23 22 22 22 22 21 21 21 20 20 20 20 19 19 19 19 19 19 19 19 19 19 19 18
24 25 25 26 26 27 27 27 27 27 27 27 28 28 28 26 26 25 24 23 22 22 21 21 21 20 20 19 19 19 19 19 19 19 19 19 19 19 18 18 18 18 18 18
23 23 24 24 26 26 26 26 26 26 27 27 27 27 27 26 24 24 23 22 21 21 21 20 20 19 19 19 19 19 19 18 18 19 19 19 18 18 18 18 18 18 18 18
23 22 23 24 25 24 24 25 25 26 26 26 26 26 25 25 24 23 22 21 21 20 20 20 19 19 19 19 19 19 18 18 18 18 18 18 18 18 18 17 18 18 18 18
21 21 22 23 23 22 25 25 25 25 25 25 25 25 24 23 22 21 21 21 20 20 19 19 19 19 18 18 18 18 18 18 18 18 18 18 18 17 17 17 17 17 17 17
21 21 22 22 23 23 24 24 24 23 24 24 24 23 23 22 22 21 20 20 19 19 19 18 18 18 18 18 18 17 17 17 18 18 18 17 17 17 17 17 17 17 17 17
21 20 21 21 21 22 24 23 23 23 23 23 22 22 21 21 23 22 19 19 18 18 17 17 17 17 17 17 17 17 17 17 17 17 17 17 17 17 17 16 16 16 16 16
20 20 20 21 21 23 22 22 22 22 22 21 21 20 20 21 21 20 18 18 17 17 17 17 17 17 17 17 17 16 16 16 17 16 16 16 16 16 16 16 16 16 16 16
20 21 20 21 21 22 21 21 21 20 19 19 19 19 19 19 19 18 18 17 17 16 16 16 16 16 16 16 16 16 16 16 16 16 16 16 16 16 16 15 15 15 15 15
20 20 21 21 21 20 19 19 18 18 18 18 19 18 18 18 18 17 17 17 16 16 16 16 16 16 16 16 16 16 16 16 16 15 15 15 15 15 15 15 15 15 15 15
19 18 19 19 20 19 19 18 18 18 18 18 18 17 17 17 17 17 16 16 16 16 16 16 16 15 15 16 16 15 15 15 15 15 15 15 15 15 15 15 15 15 15 15
19 18 18 18 19 18 18 17 17 17 17 17 17 17 17 17 17 16 16 15 15 15 15 15 15 15 15 15 15 15 15 15 15 14 14 14 14 15 14 14 14 14 14 15
18 18 18 18 18 18 18 17 16 16 16 16 16 16 16 16 16 15 15 15 15 15 14 14 14 14 14 14 14 15 14 14 14 14 14 14 14 14 14 14 14 14 14 14
Wind_Speed
10 12 13 11 10 8 8 9 9 6 4 7 8 8 6 9 11 12 13 14 15 15 15 15 15 15 14 13 13 13 12 11 9 8 8 7 7 6 6 5 6 7 6 6
11 15 12 9 8 9 10 11 10 6 4 7 8 9 7 9 12 13 14 15 15 15 15 16 16 16 16 15 14 14 13 13 12 9 7 6 6 6 6 5 5 7 7 6
16 10 7 10 11 11 12 12 10 7 6 9 9 10 9 9 11 12 13 14 15 15 17 17 17 17 17 16 16 14 14 13 13 11 9 7 6 6 6 6 6 7 7 7
12 9 9 12 13 13 13 9 9 9 10 9 9 11 7 8 10 11 13 14 15 15 16 17 17 18 17 17 15 14 13 13 13 12 11 11 8 8 7 6 6 6 7 7
10 9 11 13 13 12 10 7 9 10 12 13 12 12 9 9 9 10 11 13 14 14 16 17 17 18 17 16 15 14 14 13 13 12 11 11 10 8 7 6 6 6 6 6
10 8 10 11 10 10 7 8 9 11 12 16 15 14 12 8 8 7 8 10 12 13 14 15 15 15 16 16 15 15 15 14 13 13 13 12 11 10 8 7 7 6 5 6
11 10 9 8 10 10 11 12 10 12 13 15 11 13 11 6 6 6 7 7 10 12 13 15 16 16 16 17 16 15 15 14 14 14 13 13 12 11 10 9 8 7 6 6
11 11 9 8 11 11 13 16 14 14 14 12 10 12 9 6 5 6 6 5 7 10 12 13 15 16 16 17 17 16 15 14 14 14 13 11 11 9 9 9 8 7 6 6
8 9 6 7 9 11 13 15 15 15 17 15 12 11 10 7 6 6 5 5 5 7 10 12 13 14 15 16 17 16 15 14 14 13 12 11 11 10 9 8 9 7 6 6
8 9 8 7 8 10 12 12 11 14 14 16 15 15 11 8 7 6 5 5 5 5 8 10 11 12 13 14 14 14 14 13 12 12 11 10 10 10 9 8 8 7 7 6
8 9 9 9 10 10 10 12 12 12 14 15 16 11 4 5 6 7 6 5 4 4 5 7 8 9 10 11 12 13 13 12 11 11 11 10 10 9 9 8 8 8 7 7
5 8 9 10 7 7 10 12 13 13 14 14 16 11 2 3 4 5 5 4 2 1 3 5 7 7 8 9 10 11 11 11 11 10 10 10 9 8 9 8 8 8 8 8
3 6 9 10 9 8 9 10 12 13 13 15 17 12 3 2 2 3 3 2 1 1 2 3 5 6 7 8 9 9 10 10 9 9 9 9 9 8 8 8 8 8 8 7
5 7 10 12 9 7 10 11 12 15 15 16 17 14 8 4 4 3 2 1 1 2 2 3 4 5 5 6 7 7 7 7 8 8 8 8 8 8 8 7 7 7 7 7
5 9 10 12 11 11 13 14 13 15 17 17 15 14 10 6 5 5 3 2 1 2 2 3 3 4 5 6 7 7 7 7 7 7 7 7 7 7 7 6 6 6 7 7
4 7 10 13 13 13 14 15 15 16 15 16 16 14 7 5 4 4 3 3 3 2 2 2 3 4 5 6 6 7 7 7 7 7 7 6 6 6 6 6 6 6 7 7
6 6 9 12 10 12 16 14 13 13 13 13 14 9 4 4 4 3 3 3 2 2 2 2 3 3 4 5 6 6 7 7 7 7 7 7 7 7 6 6 6 6 6 6
8 8 7 10 9 13 8 4 7 9 9 9 8 6 5 4 3 3 3 3 2 2 2 1 2 3 3 4 5 5 6 7 7 7 6 6 6 6 6 5 5 5 5 5
10 8 7 9 12 13 8 4 4 7 8 6 5 4 3 3 4 4 2 2 2 2 1 1 1 2 2 3 5 5 5 5 6 6 6 6 6 6 6 5 5 4 4 5
8 9 9 10 11 12 5 1 3 6 8 3 3 3 3 5 6 3 1 2 2 1 1 1 1 1 2 3 4 5 5 5 5 5 6 5 6 6 5 5 5 5 5 5
8 9 12 13 13 10 1 2 4 9 4 0 3 4 5 6 6 2 2 2 2 2 2 2 1 1 1 3 4 4 5 5 5 5 5 5 5 6 6 5 5 5 5 5
9 8 10 10 12 8 3 2 4 4 4 3 4 4 4 4 3 2 2 2 2 2 2 2 1 1 1 2 4 4 4 4 3 4 4 4 4 5 4 5 5 5 5 6
7 6 6 6 5 2 2 2 3 3 3 2 3 3 3 3 2 1 1 1 1 1 1 1 1 1 1 2 3 4 3 3 3 3 4 3 4 4 4 5 6 6 6 6
7 5 7 8 6 5 4 3 3 3 3 3 3 3 3 3 2 1 1 0 1 1 1 1 2 2 3 3 3 3 3 3 3 4 3 4 4 4 4 4 5 5 6 6
7 6 8 10 8 6 5 4 4 4 4 3 3 3 3 3 2 2 2 1 1 1 2 2 2 3 4 4 3 3 3 3 3 4 4 4 4 4 4 5 4 6 5 5
9 10 10 9 7 6 7 6 6 5 4 3 3 3 3 2 2 2 2 2 2 2 2 2 3 4 4 4 4 4 4 4 5 4 4 4 5 4 5 5 5 3 5 4
Wind_Direction
206 225 229 231 240 259 258 260 257 250 234 240 247 252 226 201 208 206 200 198 199 201 195 192 194 195 193 193 194 195 198 192 196 199 201 202 206 211 212 217 212 217 224 220
215 230 235 234 236 241 244 252 255 243 232 250 259 257 240 214 216 213 208 204 204 200 195 192 195 196 197 195 196 196 198 197 199 199 203 209 215 216 216 219 211 221 222 224
231 235 220 223 227 234 239 245 255 260 251 240 257 249 229 212 215 216 216 213 208 203 199 194 196 199 198 197 197 198 198 198 201 199 202 201 207 221 214 214 213 219 222 224
235 232 221 225 231 238 244 243 254 254 255 249 246 261 232 211 210 215 216 214 211 205 203 199 197 198 199 198 194 196 195 198 199 200 208 207 210 216 218 217 216 215 220 227
223 222 224 233 236 239 252 248 248 252 255 258 245 256 249 214 221 219 214 214 214 207 202 201 200 198 199 196 192 192 193 197 197 200 205 211 217 220 220 216 215 221 215 221
241 231 237 242 240 237 233 231 238 243 248 248 246 251 253 230 227 224 215 213 214 210 204 200 200 196 195 193 192 192 192 196 196 199 204 211 218 221 222 219 218 219 217 216
231 226 221 230 229 214 220 231 237 236 234 244 236 244 253 248 243 245 235 222 212 209 205 199 196 194 193 193 192 193 192 196 198 200 205 209 214 217 221 226 225 227 223 218
229 225 212 220 232 234 227 235 241 252 253 249 224 240 245 244 250 250 241 230 214 208 205 201 197 196 195 195 193 194 194 197 197 200 204 207 210 216 222 225 230 224 227 225
246 236 213 228 239 242 235 238 248 256 262 263 250 246 243 232 240 240 231 223 216 209 207 205 200 198 197 197 196 196 195 196 197 199 201 206 209 218 222 220 225 228 224 221
264 256 231 219 227 230 246 244 243 245 250 255 251 245 245 226 238 245 239 229 227 216 211 207 204 200 199 198 195 195 194 195 196 197 199 202 205 211 218 221 221 225 222 221
262 252 236 223 230 236 225 231 237 245 250 255 258 251 256 231 240 250 250 246 238 227 215 203 201 199 195 192 189 190 190 191 194 197 197 201 202 204 208 213 216 218 220 217
263 255 251 239 236 252 243 241 236 241 245 251 262 262 256 244 247 257 257 255 257 251 218 197 191 188 182 181 183 182 185 187 190 192 193 197 198 202 208 211 214 214 215 217
289 255 246 233 219 219 234 239 242 247 249 249 254 253 203 211 252 267 259 244 197 150 166 174 176 179 177 175 176 174 179 181 181 185 187 190 195 201 211 217 216 214 215 218
274 255 255 260 266 250 244 245 245 248 249 251 253 261 254 252 262 265 260 228 146 124 130 152 162 166 165 167 168 168 172 173 174 179 185 188 196 201 209 213 215 217 218 218
273 256 257 266 272 267 259 257 251 250 255 259 262 262 262 262 262 257 247 216 178 145 137 148 151 153 155 159 163 163 165 167 170 171 177 183 189 196 203 208 213 217 224 223
275 269 268 261 260 260 261 256 252 252 253 254 258 259 257 261 255 248 237 216 195 172 156 156 151 153 156 160 164 165 166 172 171 171 175 175 181 187 194 205 211 216 224 229
260 260 264 262 259 259 252 250 248 248 248 251 257 260 253 244 239 238 233 222 201 173 156 159 155 164 171 169 169 168 170 174 175 177 179 179 183 188 194 205 206 213 218 225
250 258 256 261 257 248 250 250 257 253 251 260 264 252 239 239 232 235 224 215 195 173 164 158 173 181 185 177 174 178 175 176 178 180 182 180 188 192 193 199 206 212 216 223
231 237 251 253 250 251 238 238 253 256 252 259 253 244 242 242 230 213 217 222 206 208 190 191 203 210 193 187 182 182 180 182 185 185 186 188 191 195 197 202 210 217 222 227
208 222 240 242 251 253 246 239 274 259 243 233 247 235 239 247 243 228 218 245 228 227 217 222 236 239 203 185 180 190 191 193 198 196 194 194 193 197 201 207 214 220 226 231
209 216 231 242 247 252 315 318 248 238 265 269 248 242 239 256 280 275 250 254 233 228 213 203 219 246 213 180 176 190 197 208 208 200 193 195 198 199 206 214 219 221 231 239
235 234 229 240 246 246 47 266 250 310 332 280 257 249 257 272 276 243 234 236 222 220 203 191 220 270 268 209 189 198 212 223 217 210 207 199 212 220 209 213 226 228 232 236
240 259 263 251 260 333 320 293 302 297 283 283 276 277 262 256 246 245 257 244 205 191 204 231 273 305 292 244 219 223 232 234 223 214 219 214 216 231 229 227 229 227 226 239
230 246 256 258 253 267 272 280 298 306 294 291 293 282 263 263 262 294 302 263 227 222 249 282 295 303 297 276 252 251 253 247 231 222 225 224 226 231 233 238 237 238 238 242
262 242 247 252 265 277 261 276 288 303 301 298 304 293 284 279 280 294 308 315 300 274 281 279 286 295 298 294 279 269 265 256 242 237 242 242 244 243 243 243 250 249 256 253
244 242 246 257 267 272 283 284 283 283 284 282 285 292 291 282 285 294 298 304 294 293 293 283 290 297 298 292 274 273 273 258 250 247 248 255 257 252 250 251 258 238 235 210
Height
1490 1488 1485 1482 1481 1482 1483 1486 1486 1483 1482 1485 1485 1485 1485 1490 1493 1496 1500 1503 1506 1510 1514 1517 1520 1523 1525 1527 1529 1532 1534 1536 1538 1540 1541 1543 1545 1546 1547 1548 1548 1548 1549 1550
1486 1484 1479 1479 1482 1484 1484 1487 1485 1482 1482 1484 1483 1482 1480 1485 1488 1491 1495 1499 1502 1506 1510 1513 1516 1519 1522 1524 1527 1529 1531 1534 1535 1537 1539 1541 1543 1544 1545 1546 1546 1547 1547 1548
1481 1477 1478 1481 1483 1485 1483 1484 1483 1485 1482 1481 1483 1483 1479 1480 1485 1489 1491 1494 1498 1501 1505 1509 1512 1515 1518 1521 1523 1526 1528 1531 1533 1535 1537 1539 1540 1541 1543 1543 1544 1544 1545 1546
1476 1475 1479 1481 1481 1481 1484 1477 1481 1483 1486 1483 1483 1489 1477 1474 1479 1483 1486 1489 1492 1496 1500 1504 1507 1510 1513 1517 1520 1522 1525 1527 1530 1532 1534 1536 1537 1539 1540 1541 1542 1542 1542 1543
1475 1475 1478 1480 1478 1477 1477 1477 1479 1481 1483 1484 1479 1486 1475 1470 1476 1477 1480 1483 1487 1491 1495 1498 1502 1505 1509 1513 1516 1518 1521 1523 1526 1529 1531 1533 1535 1536 1538 1538 1539 1539 1540 1541
1472 1473 1474 1474 1474 1475 1477 1480 1481 1479 1479 1492 1480 1484 1479 1465 1469 1470 1474 1479 1483 1486 1490 1494 1498 1502 1505 1508 1512 1514 1516 1519 1522 1525 1527 1529 1531 1533 1534 1535 1536 1537 1538 1538
1475 1472 1472 1474 1475 1475 1477 1483 1491 1493 1491 1486 1471 1478 1472 1463 1464 1467 1471 1475 1478 1482 1485 1489 1493 1496 1500 1503 1507 1510 1512 1515 1518 1521 1523 1525 1528 1529 1531 1532 1533 1534 1535 1536
1478 1477 1470 1471 1472 1473 1473 1475 1489 1497 1489 1476 1473 1475 1465 1461 1464 1467 1470 1472 1475 1478 1481 1484 1488 1491 1494 1498 1502 1505 1508 1511 1514 1517 1519 1522 1524 1526 1527 1528 1530 1530 1531 1532
1473 1474 1467 1469 1469 1470 1472 1470 1465 1474 1476 1479 1470 1464 1460 1460 1463 1465 1468 1470 1472 1474 1477 1480 1484 1487 1490 1493 1497 1500 1503 1506 1509 1512 1515 1517 1519 1521 1523 1524 1525 1526 1527 1528
1471 1477 1467 1468 1469 1468 1466 1465 1469 1474 1488 1487 1474 1468 1462 1460 1462 1463 1465 1467 1469 1471 1474 1477 1480 1483 1486 1489 1493 1496 1499 1502 1505 1508 1511 1513 1515 1516 1518 1520 1521 1522 1523 1524
1471 1476 1470 1467 1469 1467 1469 1469 1468 1468 1469 1481 1480 1466 1451 1456 1460 1461 1463 1465 1468 1469 1471 1473 1477 1480 1483 1486 1489 1492 1495 1498 1501 1504 1506 1508 1510 1512 1514 1515 1517 1518 1519 1520
1474 1471 1471 1466 1463 1464 1463 1464 1466 1474 1475 1471 1471 1465 1451 1455 1458 1461 1463 1465 1467 1468 1470 1472 1475 1477 1480 1483 1485 1488 1491 1494 1497 1499 1501 1504 1506 1508 1511 1512 1513 1514 1515 1516
1477 1476 1480 1473 1469 1466 1464 1463 1462 1462 1465 1467 1470 1463 1452 1455 1459 1462 1463 1465 1466 1467 1468 1470 1473 1475 1477 1480 1482 1485 1487 1490 1493 1495 1497 1499 1501 1504 1506 1508 1509 1511 1512 1513
1480 1475 1476 1476 1467 1463 1466 1464 1462 1464 1463 1462 1460 1457 1453 1456 1459 1462 1463 1465 1466 1467 1468 1470 1472 1473 1475 1477 1479 1482 1484 1487 1489 1491 1493 1495 1497 1500 1503 1504 1505 1507 1508 1509
1478 1475 1471 1467 1463 1462 1462 1461 1460 1462 1459 1459 1455 1454 1453 1456 1460 1462 1464 1465 1466 1467 1468 1470 1470 1472 1473 1475 1477 1479 1481 1484 1486 1488 1490 1492 1494 1497 1499 1500 1501 1502 1504 1505
1478 1476 1473 1470 1463 1462 1462 1459 1458 1459 1456 1455 1454 1453 1454 1457 1460 1462 1463 1464 1465 1466 1467 1469 1470 1471 1472 1473 1475 1477 1479 1481 1482 1485 1487 1488 1491 1493 1495 1497 1498 1499 1500 1501
1476 1477 1477 1470 1462 1464 1464 1456 1456 1455 1453 1454 1454 1452 1455 1457 1460 1462 1463 1464 1465 1466 1467 1468 1468 1470 1471 1472 1473 1474 1476 1478 1479 1481 1483 1485 1487 1489 1491 1493 1494 1495 1496 1497
1480 1478 1474 1469 1470 1476 1456 1451 1453 1453 1453 1452 1452 1454 1456 1458 1461 1463 1464 1464 1464 1465 1466 1466 1467 1468 1469 1470 1471 1473 1474 1476 1477 1479 1480 1482 1484 1485 1487 1489 1490 1492 1493 1493
1475 1477 1473 1470 1468 1461 1453 1453 1454 1456 1455 1454 1454 1455 1458 1459 1460 1461 1463 1463 1463 1464 1465 1465 1466 1466 1467 1468 1469 1470 1471 1473 1475 1476 1477 1479 1481 1482 1484 1485 1486 1488 1489 1489
1473 1475 1473 1470 1472 1466 1452 1453 1455 1457 1456 1455 1456 1457 1458 1458 1455 1456 1460 1461 1461 1462 1463 1463 1464 1464 1465 1465 1466 1467 1469 1470 1472 1473 1475 1476 1477 1479 1480 1482 1483 1484 1485 1485
1470 1471 1471 1467 1466 1454 1453 1455 1456 1461 1456 1456 1457 1458 1459 1457 1456 1458 1458 1458 1458 1459 1460 1461 1462 1462 1462 1463 1464 1466 1467 1468 1469 1471 1472 1473 1474 1475 1477 1479 1479 1480 1481 1482
1464 1463 1465 1463 1464 1458 1456 1456 1457 1458 1459 1458 1458 1459 1459 1458 1457 1456 1457 1457 1457 1456 1457 1459 1460 1460 1460 1461 1462 1463 1464 1465 1466 1467 1468 1469 1471 1472 1474 1475 1475 1476 1476 1477
1462 1461 1458 1458 1459 1459 1459 1459 1460 1460 1459 1459 1458 1458 1458 1457 1456 1456 1456 1456 1457 1456 1457 1457 1458 1458 1459 1460 1460 1461 1462 1462 1463 1464 1464 1465 1467 1468 1470 1471 1472 1472 1472 1473
1460 1464 1462 1460 1456 1458 1459 1460 1460 1459 1459 1458 1458 1457 1457 1456 1455 1455 1455 1455 1456 1457 1457 1456 1457 1457 1458 1458 1458 1459 1459 1460 1460 1461 1461 1462 1463 1464 1466 1467 1467 1468 1468 1469
1459 1461 1459 1458 1458 1458 1458 1459 1459 1459 1458 1457 1457 1456 1456 1455 1455 1455 1454 1454 1455 1455 1456 1456 1456 1456 1456 1456 1456 1457 1457 1456 1457 1457 1458 1459 1460 1461 1461 1462 1462 1463 1463 1463
1459 1459 1458 1455 1456 1457 1457 1458 1458 1457 1456 1456 1456 1455 1455 1455 1455 1454 1454 1454 1454 1454 1454 1454 1454 1454 1454 1453 1453 1454 1454 1454 1454 1454 1454 1456 1457 1457 1458 1458 1458 1457 1457 1457